FW1075 Weather Reports


time (UTC)temp
C
wind
direction
speed
KPH
gust
KPH
rain 1hr
cm
rain 24hr
cm
rain mn
cm
humidity
%
barometer
mb
20260503192123 16 288 14.5 29.0 0.00 0.00 0.00 35 1008.8
20260503191121 16 295 11.3 19.3 0.00 0.00 0.00 36 1009.0
20260503190121 16 298 11.3 19.3 0.00 0.00 0.00 37 1009.0
20260503185126 15 299 9.7 19.3 0.00 0.00 0.00 38 1009.2
20260503185121 16 300 9.7 19.3 0.00 0.00 0.00 37 1009.2
20260503184123 15 307 11.3 20.9 0.00 0.00 0.00 40 1009.2
20260503183143 15 296 11.3 19.3 0.00 0.00 0.00 39 1009.4
20260503182122 15 328 11.3 20.9 0.00 0.00 0.00 39 1009.2
20260503181121 15 321 11.3 17.7 0.00 0.00 0.00 40 1009.1
20260503180122 13 289 12.9 24.1 0.00 0.00 0.00 41 1009.1
20260503175143 13 290 12.9 20.9 0.00 0.00 0.00 40 1009.1
20260503174123 14 333 11.3 20.9 0.00 0.00 0.00 40 1009.1
20260503173144 15 315 11.3 27.4 0.00 0.00 0.00 40 1009.1
20260503172122 14 315 9.7 22.5 0.00 0.00 0.00 39 1009.4
20260503171143 13 279 12.9 20.9 0.00 0.00 0.00 40 1009.2
20260503170121 14 305 12.9 25.7 0.00 0.00 0.00 39 1009.2
20260503160122 12 312 12.9 20.9 0.00 0.00 0.00 43 1009.4
20260503150125 10 307 12.9 25.7 0.00 0.00 0.00 48 1009.7
20260503140122 11 324 11.3 17.7 0.00 0.00 0.00 53 1009.8
20260503131121 10 306 9.7 16.1 0.00 0.00 0.00 56 1009.8
20260503130122 10 309 8.0 14.5 0.00 0.00 0.00 57 1009.8
20260503120121 9 315 8.0 14.5 0.00 0.00 0.00 60 1009.7
20260503110122 7 303 8.0 16.1 0.00 0.00 0.00 66 1009.2
20260503100143 6 26 4.8 8.0 0.00 0.00 0.00 69 1008.4
20260503090121 7 23 4.8 11.3 0.00 0.00 0.00 65 1008.2
20260503081121 7 345 6.4 11.3 0.00 0.00 0.00 63 1008.4
20260503080121 7 323 6.4 11.3 0.00 0.00 0.00 63 1008.4
20260503072121 8 357 4.8 9.7 0.00 0.00 0.00 61 1008.2
20260503071121 8 282 6.4 12.9 0.00 0.00 0.00 60 1008.2
20260503070121 8 331 6.4 14.5 0.00 0.00 0.00 60 1008.2
20260503060121 9 6 6.4 12.9 0.00 0.00 0.00 58 1008.6
20260503055122 10 38 8.0 17.7 0.00 0.00 0.00 57 1008.5
20260503054122 10 2 6.4 12.9 0.00 0.00 0.00 58 1008.6
20260503053143 10 5 6.4 16.1 0.00 0.00 0.00 59 1008.7
20260503052121 10 328 4.8 8.0 0.00 0.00 0.00 59 1008.8
20260503051122 10 76 6.4 14.5 0.00 0.00 0.00 58 1009.0
20260503050121 10 19 6.4 14.5 0.00 0.00 0.00 57 1009.0
20260503045122 10 53 4.8 9.7 0.00 0.00 0.00 57 1009.2
20260503044124 10 33 6.4 12.9 0.00 0.00 0.00 56 1009.0
20260503043125 11 89 6.4 12.9 0.00 0.00 0.00 56 1009.1
20260503042121 11 321 6.4 11.3 0.00 0.00 0.00 56 1009.1
20260503041121 11 360 4.8 11.3 0.00 0.00 0.00 58 1009.2
20260503040144 11 8 3.2 8.0 0.00 0.00 0.00 59 1009.2
20260503035145 11 57 4.8 9.7 0.00 0.00 0.00 58 1009.1
20260503034121 11 98 3.2 8.0 0.00 0.00 0.00 57 1008.9
20260503033121 11 303 4.8 9.7 0.00 0.00 0.00 57 1008.9
20260503032123 11 332 3.2 9.7 0.00 0.00 0.00 56 1008.9
20260503031144 11 321 4.8 9.7 0.00 0.00 0.00 55 1008.9
20260503030145 11 236 4.8 9.7 0.00 0.00 0.00 54 1008.9
20260503025123 11 313 4.8 9.7 0.00 0.00 0.00 53 1009.0
20260503024122 11 17 4.8 9.7 0.00 0.00 0.00 53 1009.1
20260503023122 12 27 6.4 11.3 0.00 0.00 0.00 52 1009.0
20260503022121 12 331 4.8 11.3 0.00 0.00 0.00 51 1009.2
20260503021122 12 350 6.4 11.3 0.00 0.00 0.00 50 1009.2
20260503020124 12 342 6.4 8.0 0.00 0.00 0.00 49 1009.2
20260503015124 12 306 4.8 9.7 0.00 0.00 0.00 48 1009.2
20260503014122 12 312 6.4 11.3 0.00 0.00 0.00 48 1009.2
20260503013122 12 313 4.8 9.7 0.00 0.00 0.00 48 1009.2
20260503012121 12 336 4.8 11.3 0.00 0.00 0.00 49 1009.1
20260503011123 12 310 4.8 9.7 0.00 0.00 0.00 50 1008.9
20260503010142 12 275 4.8 8.0 0.00 0.00 0.00 50 1008.9
20260503005125 12 281 4.8 11.3 0.00 0.00 0.00 51 1008.7
20260503004121 13 290 4.8 12.9 0.00 0.00 0.00 53 1008.5
20260503003146 13 1 3.2 9.7 0.00 0.00 0.00 53 1008.5
20260503002123 13 77 4.8 9.7 0.00 0.00 0.00 51 1008.4
20260503001122 13 240 3.2 6.4 0.00 0.00 0.00 50 1008.4
20260503000122 13 355 4.8 9.7 0.00 0.00 0.00 49 1008.4
20260502235142 14 309 3.2 6.4 0.00 0.00 0.00 48 1008.4
20260502234121 14 5 4.8 9.7 0.00 0.00 0.00 47 1008.2
20260502233125 14 315 4.8 6.4 0.00 0.00 0.00 47 1008.1
20260502232126 15 270 4.8 9.7 0.00 0.00 0.00 47 1008.1
20260502231121 15 288 4.8 9.7 0.00 0.00 0.00 46 1008.0
20260502230123 15 324 4.8 11.3 0.00 0.00 0.00 46 1008.0
20260502225122 16 314 4.8 9.7 0.00 0.00 0.00 45 1008.0
20260502224122 16 327 4.8 6.4 0.00 0.00 0.00 44 1007.9
20260502223124 16 321 8.0 11.3 0.00 0.00 0.00 45 1008.0
20260502222122 17 330 4.8 11.3 0.00 0.00 0.00 45 1007.9
20260502221122 17 309 4.8 8.0 0.00 0.00 0.00 43 1007.9
20260502220126 16 352 4.8 8.0 0.00 0.00 0.00 46 1007.9
20260502215122 16 123 4.8 8.0 0.00 0.00 0.00 49 1007.8
20260502214122 17 295 6.4 11.3 0.00 0.00 0.00 44 1007.8
20260502213122 17 320 6.4 11.3 0.00 0.00 0.00 44 1007.8
20260502212122 17 315 6.4 9.7 0.00 0.00 0.00 45 1007.7
20260502211121 17 346 8.0 12.9 0.00 0.00 0.00 46 1007.6
20260502210122 18 286 6.4 12.9 0.00 0.00 0.00 46 1007.5
20260502205121 19 319 8.0 19.3 0.00 0.00 0.00 43 1007.5
20260502204142 18 318 6.4 11.3 0.00 0.00 0.00 42 1007.5
20260502203143 17 308 6.4 11.3 0.00 0.00 0.00 46 1007.6
20260502202122 17 311 6.4 9.7 0.00 0.00 0.00 44 1007.9
20260502201142 19 290 6.4 11.3 0.00 0.00 0.00 42 1008.0
20260502200121 20 277 6.4 12.9 0.00 0.00 0.00 42 1008.0
20260502195121 19 244 4.8 11.3 0.00 0.00 0.00 45 1008.2
20260502194142 18 277 6.4 14.5 0.00 0.00 0.00 46 1008.2
20260502193142 19 245 4.8 8.0 0.00 0.00 0.00 46 1008.5